{"data":{"norad_id":61692,"intl_designator":"2024-195F","name":"STARLINK-11315 [DTC]","alt_names":[],"object_type":"PAYLOAD","status":"ACTIVE","operator":null,"country":"US","launch_date":"2024-10-30","launch_site_code":"AFWTR","launch_vehicle":null,"mission":null,"orbit_class":"UNKNOWN","rcs_meters":null,"size_class":null,"mass_kg":null,"dimensions":null,"purposes":["comms"],"wikipedia_slug":null,"has_3d_model":false,"image_url":null,"decayed_at":null,"tle_current":{"epoch":"2026-05-24T21:54:31.320000Z","epoch_age_seconds":78534,"freshness":"FRESH","line1":"1 61692U 24195F   26144.91286250  .00002324  00000+0  24040-4 0  9999","line2":"2 61692  53.1587  10.6321 0000605  85.0902 275.0185 15.69699252 91005","mean_motion":15.69699252,"eccentricity":6.05e-5,"inclination_deg":53.1587,"raan_deg":10.6321,"arg_perigee_deg":85.0902,"mean_anomaly_deg":275.0185,"bstar":2.404e-5,"rev_number":9100,"period_min":91.737318353516,"perigee_km":359.34986463947,"apogee_km":360.16514987485,"semimajor_km":6737.8945072572,"source":"CELESTRAK","updated_at":"2026-05-25T13:38:19.440311Z"}}}